Wetbulb
54.13 54.63 54.63 56.97 59.04 58.91 58.48 57.32 56.61 58.99 61.75 61.20 60.97 60.91 61.67 62.91 63.43 63.29 64.02 64.91 65.40 66.27 68.56 69.85 70.21 70.79 71.01 71.57 71.88 72.78 73.10 74.39 74.21 73.24 73.08 73.72 74.10 75.83 75.81 76.39 76.19 76.26 75.03 74.49
52.23 51.85 56.17 56.60 59.10 58.51 57.96 56.11 56.45 58.91 61.48 61.21 60.23 60.65 62.09 62.76 62.96 63.85 63.96 64.50 65.08 65.96 67.16 68.11 68.80 69.44 69.87 70.76 71.36 72.60 73.37 74.59 74.34 73.91 74.27 74.76 74.96 76.15 77.21 76.56 75.03 74.25 74.56 76.12
49.88 52.09 53.33 55.04 56.65 56.27 56.50 54.66 55.26 55.97 59.93 60.64 59.34 58.46 59.44 62.45 63.76 64.38 65.13 65.83 66.05 65.81 66.16 67.34 67.92 68.65 69.47 69.88 70.90 71.96 73.48 74.50 74.81 74.61 74.52 74.92 76.14 76.29 76.17 76.00 75.22 74.72 76.03 75.26
50.16 51.00 52.18 54.24 53.79 55.98 52.92 56.77 57.10 57.56 57.25 54.53 59.34 51.65 57.83 60.81 61.02 62.63 63.94 64.89 65.51 66.07 66.71 67.43 67.62 68.26 69.19 69.94 71.56 72.71 73.58 74.36 74.92 74.71 74.15 74.22 73.20 76.48 77.12 76.06 76.51 75.73 76.93 76.97
49.08 48.83 49.75 50.84 52.91 56.44 53.67 58.44 57.55 58.37 57.03 55.59 55.84 53.91 56.97 59.57 59.37 61.35 63.46 64.71 65.76 66.68 66.82 66.90 67.40 68.61 69.68 70.38 70.64 72.02 73.51 74.01 75.02 74.75 75.44 74.01 74.34 75.14 76.15 75.97 75.52 76.27 76.59 75.31
50.54 50.88 50.52 52.00 52.15 57.66 58.24 56.80 55.99 56.30 56.10 49.90 53.64 54.10 54.78 57.71 60.86 62.32 63.83 65.06 66.00 66.64 67.22 67.56 68.37 69.23 69.71 70.55 71.16 72.05 72.86 73.76 74.81 74.99 75.02 75.14 75.39 75.62 74.70 75.74 75.07 74.23 74.31 75.84
48.20 49.24 50.65 51.27 50.98 56.68 56.52 53.55 48.81 48.01 48.49 48.10 52.91 53.58 55.79 59.84 61.14 62.53 63.96 64.39 65.89 66.95 67.05 67.04 67.57 68.03 69.51 70.04 70.86 71.69 72.68 73.37 74.37 74.61 74.81 75.35 76.01 76.49 76.12 76.42 75.67 76.08 76.08 74.71
45.50 43.81 49.12 51.10 51.20 51.48 54.50 52.62 47.92 43.35 45.73 48.89 52.15 51.73 55.12 59.04 59.61 61.94 62.62 64.51 65.97 66.38 67.16 67.22 67.87 68.67 69.55 70.14 71.13 71.78 72.41 73.60 73.98 74.40 74.99 75.99 76.54 75.92 75.55 76.42 76.27 76.78 76.78 76.21
45.80 45.55 48.58 49.52 51.57 54.55 52.42 51.46 53.68 48.54 45.16 47.93 51.68 54.91 56.94 58.70 60.93 63.00 62.87 63.98 65.47 65.75 66.32 67.22 68.06 68.73 69.47 70.39 71.10 71.89 72.62 73.73 74.04 74.25 75.33 75.45 75.93 76.20 75.91 76.95 77.16 76.87 77.86 77.47
49.83 46.22 47.90 49.17 50.48 49.14 52.88 53.69 48.46 48.43 44.25 43.06 46.61 47.46 50.60 56.83 57.45 59.96 63.33 63.86 65.54 66.15 66.47 67.39 68.10 68.91 69.80 70.55 71.52 72.34 72.93 73.12 73.98 74.23 74.68 74.89 75.64 76.67 76.87 77.26 76.93 77.65 78.19 78.40
50.02 48.83 47.01 48.02 48.57 48.56 48.22 49.70 46.24 48.87 46.98 45.58 43.72 46.75 55.34 56.76 58.30 58.33 61.78 65.49 65.81 66.11 66.73 67.46 68.32 69.46 70.24 70.76 71.29 72.09 72.65 72.91 73.48 74.02 74.67 74.92 75.24 74.93 76.61 76.48 77.57 77.96 78.31 78.43
50.04 49.62 47.46 47.23 47.40 48.54 49.07 49.52 49.94 47.02 45.96 45.38 45.32 46.66 54.09 55.54 57.30 57.53 59.39 65.39 66.20 67.49 67.66 68.16 68.78 69.33 69.85 70.26 70.88 71.71 72.78 73.07 73.95 74.55 74.84 74.88 75.24 75.81 75.58 75.75 77.21 78.45 78.15 78.77
48.53 49.24 45.48 45.60 46.99 47.94 48.43 47.75 47.45 47.07 48.30 47.68 45.28 47.27 54.93 54.06 54.45 57.11 59.44 64.06 66.91 67.29 67.86 68.07 68.73 69.29 70.06 70.60 72.64 73.07 72.33 65.91 69.11 74.97 74.86 74.94 75.06 75.20 75.41 76.12 77.24 78.00 78.71 78.73
55.10 47.07 49.12 45.05 47.62 49.57 47.58 46.45 46.73 48.74 46.81 47.66 47.32 49.96 53.43 55.02 55.96 57.87 60.84 63.79 66.00 67.19 67.44 68.13 68.45 69.67 70.83 71.69 73.01 74.13 73.81 71.67 72.65 74.11 74.28 75.57 75.74 75.97 76.23 77.12 77.71 77.96 78.64 78.80
50.70 48.66 48.47 48.82 48.16 48.47 49.04 48.49 46.20 48.03 50.10 47.57 50.17 49.38 53.20 55.89 56.84 57.65 60.26 63.75 64.53 66.27 67.04 68.00 68.42 69.76 70.86 71.29 72.72 73.59 73.08 72.91 72.64 73.90 75.14 74.88 75.72 76.93 77.72 77.64 78.05 78.97 79.16 78.86
51.24 49.31 48.92 47.98 47.84 48.51 48.41 49.97 49.38 47.93 47.71 48.06 49.90 50.89 55.94 56.91 57.16 58.79 61.21 63.16 64.18 65.54 66.65 68.08 69.45 70.19 70.55 71.54 72.81 71.74 70.22 70.84 71.73 72.65 73.73 74.99 76.27 77.26 77.68 78.31 78.64 78.88 78.43 78.11
54.32 51.97 51.53 48.54 48.83 49.01 46.91 50.60 51.05 51.08 51.78 52.05 50.30 55.10 54.75 55.88 58.48 60.23 62.83 63.70 64.75 66.16 66.83 68.93 69.32 69.87 70.26 71.88 73.63 70.44 69.55 71.13 72.40 73.85 74.49 75.81 76.97 77.23 77.89 78.45 78.36 78.09 78.01 78.55
55.16 53.32 52.10 50.32 49.62 44.65 51.51 53.21 52.61 52.24 53.97 52.92 53.27 54.65 55.81 57.64 59.45 61.77 64.60 64.74 65.15 66.45 67.06 69.15 69.33 69.52 70.26 71.85 72.05 70.96 71.11 72.20 74.20 75.33 75.40 76.76 77.38 77.41 78.08 77.94 77.26 77.03 77.75 78.18
55.75 55.02 50.98 50.55 49.74 50.74 53.50 55.82 55.40 55.27 54.94 57.91 58.19 60.15 61.26 63.41 63.82 62.25 66.44 65.01 66.51 66.97 68.09 69.49 69.89 69.74 70.95 71.04 71.56 71.68 70.39 72.32 74.09 74.85 75.60 76.98 77.67 76.97 76.90 76.49 76.33 77.22 77.76 77.65
53.48 54.79 54.35 49.91 48.15 45.88 53.96 56.56 59.55 58.98 53.43 58.54 59.16 60.09 61.33 63.57 57.32 61.22 68.57 68.07 66.62 67.16 67.45 69.21 69.80 69.80 69.29 69.05 70.62 71.26 70.95 73.29 74.43 75.39 76.05 77.11 77.30 76.96 76.54 76.85 77.49 78.22 78.14 75.83
51.74 51.91 51.46 50.97 50.21 52.36 56.06 58.07 59.51 52.40 53.91 60.53 61.16 61.54 63.07 63.05 63.79 64.70 69.51 69.53 70.47 68.89 67.28 68.64 70.30 69.79 69.83 70.15 70.69 71.60 71.46 70.94 73.88 75.69 76.67 76.94 77.06 77.07 77.38 77.96 77.90 76.70 75.27 75.24
53.13 51.77 50.78 50.08 50.33 48.76 59.18 58.34 55.10 58.94 61.83 61.78 62.59 62.79 62.33 65.53 65.88 68.66 69.39 70.59 72.31 71.01 67.78 67.54 69.74 69.89 70.28 70.34 70.29 71.47 72.62 73.95 75.18 75.88 76.50 76.51 76.62 76.11 77.05 77.46 76.30 75.39 74.81 73.58
52.10 55.10 54.74 54.04 54.77 58.43 60.36 60.04 61.62 62.45 61.85 62.58 63.08 63.96 63.10 63.71 66.32 68.99 70.28 72.10 72.39 72.42 71.60 71.04 70.06 71.03 71.67 71.41 71.26 70.08 73.27 75.22 75.06 75.67 75.91 76.10 76.80 77.00 76.88 75.50 74.45 73.40 74.40 72.62
56.52 57.16 57.22 55.85 57.22 58.48 60.40 61.71 62.64 62.81 62.11 63.06 65.56 63.41 63.51 63.60 66.71 69.15 69.99 70.86 71.56 70.63 71.09 73.53 72.24 71.91 72.50 74.83 72.54 72.24 75.51 75.47 75.42 75.94 75.38 75.98 75.68 74.28 74.47 73.84 73.87 73.32 72.61 71.27
57.48 57.57 56.73 55.16 57.71 59.47 60.72 61.84 62.53 62.61 63.54 63.48 64.96 66.61 63.70 64.53 66.76 69.01 69.11 68.72 70.32 68.99 69.99 70.22 71.94 72.02 71.78 68.42 64.94 67.72 72.35 75.40 73.96 74.66 74.54 74.69 72.37 71.09 65.96 62.18 64.99 69.25 66.28 67.84
58.19 58.34 56.32 55.23 56.33 57.91 56.90 59.71 61.87 62.30 62.08 62.91 63.96 65.29 66.79 64.39 65.32 68.29 67.91 68.66 69.96 70.41 70.53 71.75 72.13 71.44 69.59 69.86 68.07 72.07 75.96 75.91 72.69 73.77 73.94 72.13 68.97 67.87 65.78 63.42 59.09 49.59 50.04 48.47
MSLP
1005.81 1005.44 1005.12 1005.27 1005.97 1006.24 1006.41 1006.51 1006.50 1006.65 1006.71 1007.02 1007.32 1007.77 1008.73 1009.65 1010.22 1010.66 1011.08 1011.57 1011.77 1011.95 1011.98 1012.57 1013.31 1013.84 1014.25 1014.75 1015.25 1015.71 1016.18 1016.73 1017.27 1017.73 1018.04 1018.21 1018.23 1018.35 1018.54 1018.58 1018.85 1019.01 1019.17 1019.29
1005.82 1005.07 1005.11 1005.71 1006.07 1006.17 1006.25 1006.35 1006.44 1006.58 1006.80 1007.15 1007.24 1007.45 1008.23 1008.87 1008.91 1009.05 1009.65 1010.38 1010.65 1011.00 1011.62 1012.27 1012.87 1013.23 1013.68 1014.22 1014.81 1015.35 1015.72 1016.35 1016.91 1017.39 1017.83 1018.13 1018.26 1018.25 1018.31 1018.37 1018.75 1019.02 1018.99 1018.98
1005.43 1005.27 1005.33 1005.43 1005.70 1005.75 1005.79 1005.90 1006.19 1006.27 1006.81 1007.16 1007.18 1006.91 1007.70 1008.39 1008.79 1009.09 1009.13 1009.13 1009.59 1010.09 1010.62 1011.20 1011.94 1012.28 1012.90 1013.51 1014.05 1014.58 1015.25 1015.90 1016.47 1017.15 1017.75 1018.13 1018.34 1018.44 1018.32 1018.31 1018.71 1018.90 1018.93 1018.92
1005.65 1005.54 1005.53 1005.31 1005.14 1005.46 1005.19 1005.75 1006.10 1006.30 1006.47 1006.80 1007.19 1006.26 1006.74 1007.35 1007.97 1008.15 1008.26 1008.36 1008.47 1008.98 1009.78 1010.27 1010.85 1011.53 1012.07 1012.54 1013.32 1014.13 1014.77 1015.46 1016.16 1016.99 1017.47 1017.82 1017.86 1017.89 1017.99 1018.14 1018.34 1018.46 1018.58 1018.70
1005.33 1005.47 1005.39 1005.11 1004.85 1005.35 1005.30 1005.68 1005.89 1006.23 1006.49 1006.59 1006.78 1006.52 1005.61 1006.41 1006.67 1006.70 1007.05 1007.23 1007.65 1007.95 1008.61 1009.29 1009.99 1010.58 1011.05 1012.07 1012.65 1013.37 1014.30 1014.96 1015.56 1016.39 1016.93 1017.54 1017.66 1017.69 1017.93 1018.21 1018.27 1018.35 1018.34 1018.53
1005.45 1005.57 1005.31 1004.71 1005.23 1005.45 1005.71 1005.82 1006.17 1006.41 1006.34 1005.99 1006.00 1005.96 1004.10 1004.63 1004.48 1004.71 1005.41 1005.84 1006.35 1007.11 1007.83 1008.56 1009.23 1009.95 1010.61 1011.69 1012.49 1013.05 1013.96 1014.61 1015.31 1015.99 1016.54 1016.99 1017.20 1017.37 1017.51 1017.63 1017.69 1017.97 1018.15 1018.17
1005.53 1005.26 1005.01 1004.84 1004.94 1005.69 1005.59 1005.26 1005.37 1005.56 1005.75 1005.60 1006.13 1005.57 1003.29 1002.99 1003.44 1003.55 1003.66 1004.22 1005.03 1005.99 1006.98 1007.71 1008.48 1009.43 1010.21 1011.03 1011.69 1012.46 1013.25 1013.75 1014.61 1015.24 1015.73 1016.29 1016.80 1017.06 1017.15 1017.13 1017.02 1017.33 1017.51 1017.73
1004.69 1004.89 1004.63 1004.66 1004.54 1004.70 1005.11 1004.97 1004.71 1004.71 1005.10 1005.03 1005.86 1003.99 1002.27 1002.19 1002.53 1002.64 1002.81 1003.09 1004.09 1005.10 1005.98 1006.78 1007.54 1008.55 1009.28 1010.05 1010.98 1011.91 1012.69 1013.23 1013.91 1014.32 1014.94 1015.76 1016.29 1016.63 1016.90 1017.02 1016.87 1016.95 1017.02 1017.17
1004.27 1004.37 1004.25 1004.28 1004.29 1004.55 1005.38 1005.34 1004.97 1004.86 1005.86 1005.13 1004.31 1003.20 1001.77 1001.30 1001.44 1001.73 1002.19 1002.62 1003.37 1004.25 1005.15 1005.99 1006.78 1007.61 1008.59 1009.50 1010.36 1011.07 1012.11 1012.81 1013.46 1013.91 1014.83 1015.50 1016.02 1016.19 1016.43 1016.83 1017.06 1016.89 1016.97 1016.87
1003.88 1003.87 1004.03 1003.99 1004.27 1004.75 1004.45 1004.61 1004.95 1004.83 1004.57 1004.20 1003.71 1003.06 1001.53 1000.74 1000.45 1001.00 1001.74 1002.39 1003.06 1003.86 1004.72 1005.45 1006.23 1007.06 1007.75 1008.79 1009.96 1010.95 1011.67 1012.29 1013.04 1013.77 1014.33 1014.93 1015.55 1016.03 1016.27 1016.56 1016.81 1016.81 1016.75 1016.79
1003.59 1003.62 1004.02 1004.07 1003.64 1003.57 1004.56 1004.27 1004.46 1004.22 1004.19 1003.34 1002.81 1001.80 1001.29 1000.49 1000.41 1000.54 1001.24 1002.10 1002.63 1003.28 1004.02 1004.81 1005.62 1006.57 1007.38 1008.43 1009.63 1010.53 1011.65 1012.52 1013.00 1013.31 1013.80 1014.19 1014.78 1015.71 1015.99 1016.05 1016.32 1016.53 1016.65 1016.77
1003.49 1003.09 1003.09 1003.19 1003.69 1003.71 1003.34 1003.11 1003.12 1002.96 1003.72 1003.52 1002.85 1001.35 1000.81 1000.51 1000.38 1000.55 1000.92 1001.70 1002.25 1002.85 1003.76 1004.55 1005.20 1006.15 1007.31 1008.19 1009.34 1010.25 1011.27 1012.56 1013.08 1013.21 1013.11 1013.42 1013.95 1014.81 1015.25 1015.54 1015.78 1016.07 1016.35 1016.59
1002.87 1002.75 1002.59 1002.82 1003.41 1003.64 1003.08 1003.11 1003.11 1003.06 1002.98 1002.43 1001.87 1000.59 1000.27 1000.37 1000.27 1000.23 1000.93 1001.51 1001.97 1003.02 1003.70 1004.32 1005.12 1006.20 1006.91 1007.94 1008.76 1010.03 1011.34 1012.04 1012.01 1013.15 1013.08 1012.80 1013.26 1014.01 1014.55 1014.98 1015.24 1015.59 1016.08 1016.37
1002.42 1002.20 1001.53 1001.52 1001.63 1002.03 1002.55 1002.76 1003.01 1002.34 1001.99 1001.38 1001.03 1000.05 999.67 999.55 999.69 999.59 1000.64 1001.67 1001.91 1002.85 1003.74 1004.19 1005.21 1005.96 1006.73 1007.67 1008.48 1009.64 1010.37 1010.60 1011.13 1012.10 1012.17 1012.07 1012.53 1013.23 1013.81 1014.37 1014.81 1015.13 1015.69 1016.06
1002.28 1001.74 1001.99 1001.70 1001.75 1001.74 1001.68 1001.82 1002.36 1001.67 1001.24 1001.03 1000.01 1000.02 999.43 998.89 999.11 999.41 1000.19 1001.26 1001.99 1002.58 1003.33 1003.93 1004.64 1005.55 1006.83 1007.44 1008.08 1008.66 1009.34 1010.29 1010.87 1011.58 1011.66 1011.41 1012.23 1012.99 1013.57 1014.09 1014.55 1015.01 1015.36 1015.80
1002.49 1002.23 1002.21 1001.90 1001.98 1001.77 1001.52 1001.50 1001.48 1001.60 1001.25 1001.17 1000.47 999.71 999.07 998.81 999.31 999.47 1000.16 1000.90 1001.24 1001.97 1002.79 1003.79 1004.66 1005.69 1006.35 1006.78 1007.54 1008.23 1009.15 1009.77 1010.28 1010.84 1011.30 1011.33 1011.98 1012.70 1013.32 1013.80 1014.20 1014.73 1014.91 1015.53
1002.40 1002.19 1002.19 1001.93 1002.15 1001.83 1001.57 1000.80 1000.75 1000.82 1000.74 1000.21 999.63 998.93 999.21 998.99 999.25 999.09 999.65 1000.15 1000.47 1000.99 1002.21 1003.20 1003.96 1005.05 1005.64 1005.94 1006.82 1007.91 1008.75 1009.37 1009.82 1010.31 1010.93 1011.23 1011.87 1012.46 1013.10 1013.59 1014.14 1014.47 1014.72 1015.27
1002.33 1002.27 1002.37 1001.99 1002.25 1001.48 1000.42 1000.70 1000.82 1000.57 1000.22 1000.08 999.64 999.56 999.73 999.74 999.44 999.49 999.71 1000.02 1000.30 1000.49 1001.87 1002.83 1003.75 1004.37 1004.86 1005.52 1006.64 1007.80 1008.74 1009.33 1009.86 1010.35 1010.33 1011.04 1011.65 1012.23 1012.89 1013.50 1013.84 1014.38 1014.73 1015.23
1002.64 1002.32 1002.40 1002.27 1001.64 1001.41 1000.51 1000.79 1001.01 1000.85 1000.07 1000.20 999.86 999.89 999.81 999.93 999.68 998.97 999.96 1000.23 1000.10 1000.37 1001.37 1002.20 1003.09 1003.66 1004.41 1005.11 1006.26 1007.24 1008.51 1009.47 1009.80 1009.36 1009.81 1010.82 1011.52 1012.00 1012.82 1013.16 1013.63 1014.07 1014.55 1015.17
1002.93 1002.75 1002.02 1002.49 1001.53 1001.01 1000.62 1001.14 1001.51 1001.63 1000.81 1000.61 1000.87 1000.47 1000.36 1000.31 999.65 999.45 1000.65 1000.60 1000.60 1000.95 1001.40 1001.87 1002.66 1003.31 1003.99 1004.79 1006.07 1006.93 1007.86 1008.57 1008.91 1008.77 1009.21 1010.07 1010.93 1011.86 1012.47 1013.05 1013.67 1014.21 1014.49 1015.04
1003.01 1002.95 1002.29 1002.09 1001.68 1001.30 1001.11 1001.68 1002.01 1002.16 1002.26 1001.61 1001.46 1001.13 1000.94 1000.55 1000.46 1001.44 1001.45 1001.10 1001.19 1001.66 1001.81 1002.02 1002.42 1002.58 1003.25 1004.29 1005.23 1006.18 1006.90 1007.40 1007.97 1008.40 1009.22 1010.09 1010.79 1011.70 1012.37 1013.13 1013.79 1014.15 1014.59 1015.21
1002.34 1002.39 1002.49 1002.59 1002.00 1002.04 1002.22 1002.35 1002.63 1003.08 1002.53 1002.39 1002.01 1001.83 1001.32 1000.86 1001.04 1001.99 1002.06 1001.76 1002.00 1002.31 1002.76 1003.24 1003.19 1003.69 1004.47 1005.59 1006.03 1005.96 1006.70 1007.60 1008.39 1008.66 1009.07 1010.18 1011.11 1011.43 1012.33 1013.33 1014.08 1014.44 1014.83 1015.27
1003.05 1002.65 1002.25 1002.73 1002.29 1002.63 1002.81 1002.97 1003.33 1003.38 1003.14 1002.77 1002.52 1001.95 1001.63 1001.11 1001.11 1002.09 1002.63 1002.62 1002.91 1003.09 1003.16 1003.89 1004.19 1004.41 1004.92 1005.67 1006.81 1007.26 1008.05 1008.24 1008.35 1008.99 1009.73 1010.51 1011.26 1012.22 1012.99 1013.88 1014.51 1014.73 1015.06 1015.47
1003.37 1003.54 1002.93 1003.02 1003.02 1002.93 1003.07 1003.26 1003.48 1003.61 1003.33 1003.06 1002.72 1002.21 1001.75 1001.34 1001.56 1002.02 1002.85 1003.10 1003.27 1003.80 1003.87 1004.01 1004.49 1004.93 1005.53 1005.93 1006.47 1007.38 1009.27 1009.33 1009.01 1009.39 1010.47 1010.65 1011.41 1012.58 1013.39 1014.07 1014.31 1014.58 1015.17 1015.64
1003.66 1003.75 1003.35 1003.30 1003.34 1003.29 1003.35 1003.50 1003.57 1003.59 1003.33 1003.07 1002.79 1002.39 1001.94 1001.61 1001.95 1002.41 1002.70 1003.25 1003.56 1003.90 1003.95 1004.40 1004.65 1005.08 1005.60 1006.08 1005.29 1004.97 1008.31 1009.41 1009.02 1009.44 1010.43 1010.46 1011.89 1012.93 1014.17 1014.77 1015.22 1015.27 1016.04 1015.88
1003.67 1003.02 1002.87 1002.96 1003.65 1003.71 1003.60 1003.64 1003.79 1003.57 1003.34 1003.20 1002.86 1002.46 1002.06 1001.91 1002.41 1002.75 1002.99 1002.96 1003.01 1003.43 1004.10 1004.34 1004.74 1005.21 1005.35 1005.71 1005.18 1005.37 1007.54 1007.20 1008.15 1009.35 1010.95 1011.61 1012.06 1013.16 1013.65 1014.89 1015.92 1016.69 1017.08 1016.67
Wind_Speed
2 6 9 10 3 4 4 2 2 3 5 8 11 7 14 17 16 17 16 16 16 17 18 16 15 15 14 13 13 13 11 10 8 5 5 5 5 3 4 3 4 5 4 4
3 11 7 4 7 5 4 1 4 2 3 5 3 9 10 18 21 22 22 19 18 18 15 14 15 16 16 15 14 13 13 11 9 7 5 3 4 4 2 3 4 3 5 4
8 1 5 7 6 6 5 5 3 3 5 3 3 6 8 14 14 16 18 19 20 19 18 17 16 17 17 16 17 16 15 13 11 9 5 3 2 2 3 3 3 3 6 5
5 1 5 6 8 7 10 1 4 5 4 2 3 5 7 11 18 18 20 20 20 20 18 16 17 16 17 18 15 14 14 13 11 12 9 9 7 4 2 2 3 4 6 6
6 6 7 6 8 9 3 5 4 5 3 4 4 6 2 7 13 21 22 23 22 21 20 19 17 17 18 14 15 14 14 13 12 12 11 9 9 4 1 2 4 4 4 5
4 1 4 7 4 4 8 7 6 4 1 6 2 5 6 6 7 9 21 24 24 22 20 18 17 15 13 12 12 13 14 13 13 12 12 13 11 8 5 3 3 3 4 5
2 5 2 2 3 4 3 6 2 2 4 4 1 5 11 9 8 10 14 21 24 21 19 17 15 14 12 14 15 13 15 15 14 14 14 13 12 10 8 7 4 3 4 4
10 9 9 7 10 5 10 5 6 7 4 2 4 7 6 2 7 10 11 13 19 21 18 18 18 16 16 17 17 16 16 15 15 16 15 12 12 8 7 6 4 3 3 4
6 6 2 6 5 8 7 7 1 5 2 4 1 7 12 4 5 2 1 10 16 21 20 20 18 17 16 16 18 18 16 13 13 15 11 11 11 10 8 8 6 4 3 4
6 3 2 5 5 5 7 11 7 1 5 5 4 5 10 12 14 5 3 9 14 19 20 18 17 17 16 15 15 15 14 15 12 12 11 10 11 10 8 7 8 7 4 5
9 5 3 4 10 11 6 6 4 3 3 7 9 6 8 16 11 12 4 9 14 19 19 18 17 16 15 15 16 15 14 14 12 13 12 12 10 9 8 9 8 8 6 5
8 7 9 8 2 3 1 4 8 7 7 3 4 7 5 9 10 9 9 9 14 15 16 16 16 17 16 17 16 16 15 9 8 12 14 13 11 11 12 11 11 9 8 5
11 7 5 5 5 2 5 4 2 3 2 8 9 7 3 7 11 11 10 11 12 11 14 15 16 16 17 16 15 14 18 16 24 15 13 12 11 11 12 12 12 10 8 6
8 5 11 7 11 5 7 7 8 9 5 6 9 12 13 15 12 13 3 7 12 13 15 15 16 17 16 16 14 15 18 14 15 16 14 11 10 10 10 11 10 9 8 7
8 6 6 3 2 5 4 11 13 12 6 7 9 8 14 17 12 11 0 12 12 15 16 17 19 17 16 16 15 13 13 9 13 14 10 10 8 7 8 9 9 8 7 6
2 2 3 3 3 3 3 4 7 6 2 12 13 13 11 17 8 11 6 14 16 16 17 16 16 18 19 19 16 13 8 9 10 10 9 8 8 8 9 9 9 8 7 5
4 5 4 6 1 4 5 13 12 6 8 8 6 8 5 8 9 10 5 15 17 16 18 18 20 20 19 20 16 14 11 10 11 11 10 8 8 8 9 9 9 8 7 7
5 4 0 4 3 5 3 1 4 9 8 12 12 10 8 11 13 12 8 11 13 15 16 17 17 19 20 20 17 13 12 12 11 12 11 10 10 10 10 9 9 8 7 7
2 4 4 3 5 3 3 4 2 3 5 6 4 7 10 8 9 8 1 5 11 13 14 17 17 18 16 16 14 15 16 13 13 13 14 12 11 11 10 9 9 8 8 7
4 3 5 4 4 7 2 4 1 2 5 3 7 8 9 3 5 2 7 4 7 10 14 17 19 19 18 17 16 14 15 15 13 11 13 12 12 11 10 10 9 8 8 8
5 3 9 6 5 3 1 2 3 6 3 9 8 10 8 5 3 7 3 3 4 7 13 16 19 19 19 17 15 14 12 9 9 11 13 11 12 12 11 10 8 9 9 9
5 7 4 3 4 6 4 4 3 6 7 10 11 10 12 9 5 6 3 6 6 8 8 11 13 12 14 10 10 12 9 10 9 11 13 12 11 9 9 9 8 9 9 9
5 2 1 5 2 3 2 4 3 6 9 10 13 14 13 10 3 5 6 9 9 11 11 11 11 13 12 11 3 7 4 4 8 10 11 12 11 8 8 8 8 7 7 7
3 2 3 3 2 1 2 1 5 9 10 10 11 12 11 8 2 8 9 10 11 10 11 13 16 17 15 13 11 6 7 7 10 13 13 13 12 11 9 7 6 6 6 5
2 6 4 1 3 0 4 2 8 10 10 10 10 11 10 8 3 6 9 11 12 11 12 14 14 15 15 9 9 11 19 14 13 14 13 14 12 12 8 8 4 4 3 2
5 5 5 3 4 3 4 7 7 10 12 10 10 11 12 6 3 7 8 9 11 12 10 11 13 14 17 14 12 17 20 18 11 10 11 9 11 9 10 9 11 18 11 16
Wind_Direction
64 208 213 210 135 143 155 216 210 225 210 215 216 204 179 181 187 188 192 197 201 209 215 211 212 215 217 217 216 212 210 207 195 195 214 219 225 229 234 214 165 189 203 224
169 229 223 124 160 175 179 226 246 237 188 228 238 246 194 188 200 193 188 194 207 212 214 212 211 213 214 216 215 213 214 195 194 189 191 205 216 228 269 209 172 201 200 193
209 316 180 196 168 202 225 244 219 283 145 178 270 246 181 207 218 216 209 202 201 212 212 214 212 213 214 215 210 208 206 196 188 182 167 172 205 198 208 194 177 204 206 209
234 1 171 189 211 204 256 196 190 184 202 285 305 298 218 200 209 215 212 209 204 204 216 220 218 214 214 218 212 205 198 193 186 178 184 201 225 223 225 237 172 185 196 202
194 184 191 211 224 194 274 75 117 139 125 292 179 267 194 166 214 219 217 214 213 205 205 212 216 216 216 212 208 202 195 192 185 182 189 196 218 235 144 173 155 173 209 225
216 246 214 243 94 173 145 108 85 87 162 263 333 252 272 193 203 224 217 216 211 208 202 206 211 209 206 193 194 195 190 191 187 185 189 197 206 209 209 191 182 190 217 213
176 210 257 214 133 116 178 166 235 223 205 256 162 221 265 260 240 244 211 213 210 205 198 197 198 198 194 190 189 187 189 188 186 191 194 200 211 213 216 215 229 207 199 193
201 204 200 168 219 187 183 240 218 254 229 258 178 238 256 252 284 264 249 231 207 200 196 195 192 196 195 193 190 187 190 191 191 193 195 196 203 211 220 226 247 221 231 204
166 234 206 217 156 185 162 211 26 141 113 258 327 276 271 270 259 304 213 191 189 193 191 195 191 197 194 193 192 189 189 194 193 195 193 199 206 206 209 228 247 239 228 216
177 228 205 137 132 62 220 146 174 171 227 246 211 277 274 301 308 326 207 180 182 187 191 192 191 194 197 192 186 183 183 185 189 194 195 203 211 211 215 214 224 240 228 212
172 223 116 169 210 171 155 187 66 131 283 258 265 258 236 259 279 293 246 182 183 184 186 187 190 194 184 183 176 178 175 176 182 188 189 195 198 191 202 222 228 236 235 221
182 203 222 211 73 11 244 192 190 215 200 252 299 262 258 269 278 280 287 197 191 190 177 185 183 183 176 179 175 175 171 150 214 202 180 187 190 191 212 220 227 218 219 212
170 207 178 177 169 142 228 170 150 110 117 215 255 269 160 257 268 270 266 199 191 169 173 183 179 179 182 176 176 164 142 117 243 202 192 170 180 193 212 221 217 217 217 213
167 161 202 199 194 160 173 184 200 213 183 231 232 262 269 274 275 277 217 194 202 173 177 179 175 182 180 176 174 171 179 187 180 185 182 162 175 194 207 214 215 201 201 208
195 217 194 186 177 185 192 178 190 205 209 228 255 217 258 264 268 281 358 171 193 177 181 180 177 176 170 177 179 191 193 169 164 179 174 160 173 196 204 206 203 194 182 200
133 171 198 130 146 187 225 239 205 246 216 248 270 271 274 278 256 261 206 178 192 188 189 183 173 164 171 181 183 194 178 185 167 166 184 159 170 180 193 193 184 180 157 179
174 155 193 153 98 161 232 229 200 202 211 232 231 273 332 309 269 262 218 187 193 194 181 180 177 173 180 184 180 182 165 172 168 168 174 160 165 169 178 173 169 163 160 159
147 116 35 125 176 214 41 90 280 236 246 228 263 278 288 288 282 284 264 199 204 203 169 178 172 177 184 187 183 162 159 165 169 165 143 149 159 159 160 163 158 159 155 160
255 149 123 204 200 348 246 147 184 247 230 205 267 315 306 304 277 268 176 212 221 203 174 174 175 177 176 174 165 157 171 177 177 152 140 151 155 145 157 157 158 150 150 150
136 4 227 164 194 209 244 119 66 198 256 117 320 320 308 274 233 134 52 176 206 181 177 174 173 173 178 183 168 162 167 174 176 145 132 138 142 154 157 152 150 146 149 145
151 159 205 180 218 238 340 42 147 217 5 325 329 317 294 253 328 350 26 115 182 179 179 177 175 180 183 178 175 189 173 146 143 135 131 138 146 157 149 153 157 154 154 134
168 165 172 162 187 212 27 135 242 351 327 333 336 327 303 271 275 51 64 105 119 126 145 176 171 179 184 180 193 198 182 145 146 140 136 139 154 148 147 159 161 156 147 138
189 310 109 228 52 84 42 77 6 338 315 327 323 318 311 287 257 88 117 115 118 123 132 150 154 153 169 183 195 249 274 152 138 136 140 138 134 133 143 158 158 148 144 148
164 194 227 198 69 308 148 95 35 359 326 325 337 330 326 306 315 133 132 131 128 124 130 144 146 145 145 139 113 64 288 216 163 147 152 139 129 134 143 156 160 160 163 165
70 156 161 181 257 193 114 327 329 348 357 350 345 354 348 338 11 154 139 135 142 143 137 142 139 140 155 190 179 103 229 186 161 160 159 140 136 138 122 92 67 105 54 293
192 171 209 163 118 50 348 328 337 341 346 344 338 346 358 344 346 153 157 158 160 164 158 176 183 188 201 203 206 174 167 165 139 144 158 152 139 150 134 125 96 51 56 69